loading
|
Showing default

OPS 3674 (VELA 4), 837

Orbit data source: Space-Track

OPS 3674 (VELA 4), 837 is a payload satellite owned by USAF SSD (US) in HEO that was launched on Fri, 17 Jul 1964 UTC via an ATLAS AGENA D launch vehicle from the Air Force Eastern Test Range (AFETR). Payloads include a variety of satellites, spacecraft, and rockets equipped with specific instruments for various scientific and technological missions. These include communications satellites like Starlink; space stations such as the ISS; scientific satellites like the Hubble; Earth observation satellites from companies like Planet Labs, Umbra, and HawkEye 360; GPS; miniature CubeSats for education and research; and military/defense satellites.

Loading next visibility...
Loading greatness...
OPS 3674 (VELA 4) details
Identifier
837, 1964-040B
Orbit
HEO
Last TLE updatein 2 days
Origin
Flag of USUSAF SSD (US)
ManufacturerTRW
Mission statusUnknown
MissionDefense Early Warn
Bus & MotorVELA, BE-3
Mass~217 kg wet, 125 kg dry
Launch date (UTC)
1964-07-17 (60 years ago)
Launch vehicle
ATLAS AGENA D
Launch site
Air Force Eastern Test Range (AFETR)
Object type
Payload
Rocket body
Debris
Radar Cross SectionMedium (>0.1 m² and <1 m²)

Expand to show TLE details & history

TLE from in 2 days
0 OPS 3674 (VELA 4)
1 00837U 64040B   24254.07281688  .00000210  00000-0  00000-0 0  9992
2 00837  48.3537 135.9850 3763957 265.3055   0.3805  0.23999871 53177
Epoch: 2024-09-10T01:44Z
Definitive object data (Epoch: 2024-09-10T01:44:51.378Z)
Latitude-48.30596°
Longitude23.99408°
Altitude61,802.961 km
Speed2.837 km/s
True Right ascension02h 39m 12s
True Declination-48° 17' 17"
Sunlit
Object was in daylight at TLE epoch
Predictive object data (real-time)
Latitude45.84782°
Longitude-173.77791°
Altitude142,350.41 km
Speed1.31 km/s
Apparent Right ascension13h 37m 54s
Apparent Declination45° 20' 16"
Sunlit
Object is in daylight
Predictive observer data (real-time)
Local Sidereal Time09:19:19
Azimuth60.98° ENE
Elevation43.412°
Doppler factor1
Orbital elements
Apogee144,169.22 km
Perigee61,830.431 km
Semi-major axis109,377.963 km
Eccentricity0.3763957
Inclination48.3537°
RAAN135.985°
Arg. of periapsis265.3055°
True anomaly0.90647°
Mean anomaly0.3805°
Eccentric anomaly0.61016°
Mean motion0.06 °/min
BSTARUnknown
Period6000.04 mins
No data available
Other satellites on launch #40 in the year 1964 (1964-07-17 UTC)

OPS 3674 (VELA 4) Visibility forecast

Observer location: 39.9160978°, -105.1181434

OPS 3674 (VELA 4) is not visible in the next 10 days
Span
Click to sort rows by Start time (UTC) header in descending order
Start Az.
Max El. time (UTC)
Max El. Az.
Max El.
End time (UTC)
End Az.